PUNTA_ARENAS/PRES_C current weather conditions

sailwx.info

Wind from 330 at 8 knots

Air temperature 1.0° C
Visibility: greater than 5.4 NM
Dewpoint -0.0° C
Present weather: Light rain.

Last reported at 2019-Jun-25 23:00 UTC.
Time now 2019-Jun-26 00:29 UTC

Location: S 53°00' W 070°50'.
View on Google Maps.

See reports from other nearby stations

  
Tides and Currents Weather Stations Pressure Air Temp Water Temp Dewpoint Dewpoint Depression Visibility Wind Speed Wind Dir Waves Ship Positions
date/time (UTC)wind fromknots sea level pressurealtimeterstation pressurevisibilityair tempwater tempwave heightnotes
2019-Jun-26 00:08 330 6 1.6-0.0 Light snow.
2019-Jun-26 00:00 330 6 3.8-0.0 Light drizzle snow.
2019-Jun-25 23:00 330 8 5.4 1.0 Light rain.
2019-Jun-25 22:00 320 6 5.4 1.0
2019-Jun-25 21:00 290 6 5.4 1.0
2019-Jun-25 20:00 310 7 5.4 2.0 Light rain showers.
2019-Jun-25 19:00 290 11 5.4 2.0 Light rain showers.
2019-Jun-25 18:00 280 7 5.4 3.0
2019-Jun-25 17:00 310 9 5.4 3.0
2019-Jun-25 16:00 290 4 5.4 2.0
2019-Jun-25 08:00 280 8 5.4-1.0
2019-Jun-25 07:00 270 7 5.4-1.0
2019-Jun-25 06:00 270 12 1.6-0.0 Light snow.
2019-Jun-24 09:00 270 4 5.4 1.0
2019-Jun-24 08:00 250 8 5.4 1.0
2019-Jun-24 07:00 240 22 5.4 2.0
2019-Jun-24 06:00 250 24 5.4 2.0
2019-Jun-24 05:00 250 24 5.4 2.0
2019-Jun-24 04:00 240 13 5.4 2.0
2019-Jun-24 03:00 240 5 5.4 1.0 Light rain showers.
2019-Jun-24 02:00 250 6 5.4-0.0
2019-Jun-24 01:00 190 4 5.4 1.0
2019-Jun-24 00:00 010 5 5.4 2.0